Regional Weather Roundup
Issued by NWS

Home | Current Version | Previous Version | Text Only | Print | Product List | Glossary On
Versions: 1 2 3 4 5 6 7 8 9 10 11 12 13 14 15 16 17 18 19 20 21 22 23 24 25 26 27 28 29 30 31 32 33 34 35 36 37 38 39 40 41 42 43 44 45 46 47 48 49 50
000
ASUS46 KPQR 051610
RWROR

OREGON REGIONAL WEATHER ROUNDUP
NATIONAL WEATHER SERVICE PORTLAND OR
800 AM PST MON DEC 05 2016

NOTE: "FAIR" INDICATES FEW OR NO CLOUDS BELOW 12,000 FEET WITH
NO SIGNIFICANT WEATHER AND/OR OBSTRUCTIONS TO VISIBILITY.

ORZ001>013-051700-
NORTHWEST OREGON


CITY           SKY/WX    TMP DP  RH WIND       PRES   REMARKS
ASTORIA        MOCLDY    40  33  76 S6        30.08S
NEWPORT        MOCLDY    37  36  93 SE10      30.19S WCI  30
PORTLAND       LGT RAIN  38  35  89 S9        30.16F WCI  31
VANCOUVER WA   LGT RAIN  39  35  86 S10       30.15F WCI  32
SCAPPOOSE      LGT RAIN  36  34  92 S9        30.13F WCI  29
HILLSBORO      LGT RAIN  36  34  92 S9        30.13F WCI  29
AURORA         LGT RAIN  37  34  89 S8        30.17F WCI  31
MCMINNVILLE    LGT RAIN  37  35  92 S3        30.17S
SALEM          LGT RAIN  37  34  89 S18G24    30.17S WCI  27
CORVALLIS        N/A     37  34  87 S5        30.19S WCI  34
EUGENE         CLOUDY    36  33  89 S9        30.21F WCI  29
$$

ORZ021-028-051700-
SOUTHWEST OREGON


CITY           SKY/WX    TMP DP  RH WIND       PRES   REMARKS
NORTH BEND     MOCLDY    37  37 100 SE8       30.25R WCI  31
BROOKINGS      MOCLDY    33  32  96 CALM      30.23S
ROSEBURG       MOCLDY    37  35  92 SE6       30.24S WCI  32
SEXTON SUMMIT  CLEAR     25  23  92 S6        30.10S WCI  18
MEDFORD        CLOUDY    33  32  96 N7        30.23S WCI  27
$$

ORZ014>016-041-051700-
COLUMBIA GORGE


CITY           SKY/WX    TMP DP  RH WIND       PRES   REMARKS
TROUTDALE      LGT RAIN  39  35  86 CALM      30.17S
THE DALLES     MOCLDY    32  27  81 E8        30.16S WCI  25
$$

ORZ029>031-041-044-049-050-061>064-502-503-505>511-051700-
EASTERN OREGON


CITY           SKY/WX    TMP DP  RH WIND       PRES   REMARKS
REDMOND        CLEAR     19  13  77 NE5       30.08S WCI  12
BEND           CLEAR     25  18  74 CALM      30.06F
PRINEVILLE     CLEAR     16  14  93 CALM      30.09S
KLAMATH FALLS  CLEAR     19  16  88 CALM      30.10S
LAKEVIEW       PTCLDY    14   9  79 N5        30.09S WCI   6
HERMISTON      CLEAR     30  22  72 SW6       30.13S WCI  24
PENDLETON      CLOUDY    29  20  69 S9        30.11S WCI  20
JOHN DAY       CLEAR     24  18  77 NW9       30.08S WCI  14
MEACHAM        CLOUDY    23  18  81 CALM      30.02S
LA GRANDE      CLOUDY    27  12  54 S10       30.08F WCI  17
BAKER CITY     CLEAR      5   3  91 SW6       30.08S WCI  -6
BURNS          CLEAR     10   7  87 CALM      30.10R
ROME             N/A     14   8  77 S6        30.11R WCI   5
ONTARIO        CLEAR     20  14  77 SW3       30.19R
$$



USA.gov is the U.S. government's official web portal to all federal, state and local government web resources and services.